Weather History for KTBN - November, 2010

Change the Weather History Date:

Saturday, November 20, 2010

  Actual Average Record
Temperature  
Mean Temperature 46 °F -  
Max Temperature 59 °F 52 °F 73 °F (2003)
Min Temperature 33 °F 37 °F 18 °F (2014)
Degree Days  
Heating Degree Days 19    
Moisture  
Dew Point 40 °F    
Average Humidity 93    
Maximum Humidity 100    
Minimum Humidity 51    
Precipitation  
Precipitation 0.00 in - - ()
Sea Level Pressure  
Sea Level Pressure 30.12 in    
Wind  
Wind Speed 8 mph (SE)    
Max Wind Speed 14 mph    
Max Gust Speed 18 mph    
Visibility 5 miles    
Events Fog    
Averages and records for this station are not official NWS values.
T = Trace of Precipitation, MM = Missing Value Source: NWS Daily Summary

Daily Weather History Graph

Daily Weather History Graph

Search for Another Location

Airport or City:

Trip Planner

Search our weather history database for the weather conditions in past years. The results will help you decide how hot, cold, wet, or windy it might be!

Date:

Astronomy

Nov. 20, 2010 Rise Set
Actual Time 6:53 AM CST 4:54 PM CST
Civil Twilight 6:25 AM CST 5:22 PM CST
Nautical Twilight 5:53 AM CST 5:54 PM CST
Astronomical Twilight 5:22 AM CST 6:25 PM CST
Moon 4:02 PM CST (11/20) 5:53 AM CST (11/20)
Length of Visible Light 10h 56m
Length of Day
10h 00m
Waxing Gibbous, 99% of the Moon is Illuminated
Nov 20
Waxing Gibbous
Nov 21
Full
Nov 28
Last Quarter
Dec 5
New
Dec 13
First Quarter

Hourly Weather History & Observations

Time (CST) Temp. Windchill Dew Point Humidity Pressure Visibility Wind Dir Wind Speed Gust Speed Precip Events Conditions
12:55 AM 39.9 °F 35.1 °F 38.7 °F 95% 30.12 in 10.0 mi SSE 6.9 mph - N/A   Clear
1:55 AM 37.6 °F 32.3 °F 37.4 °F 99% 30.11 in 10.0 mi SSE 6.9 mph - N/A   Clear
2:55 AM 36.1 °F 30.6 °F 36.0 °F 99% 30.11 in 7.0 mi SSE 6.9 mph - N/A   Clear
3:55 AM 36.0 °F 29.6 °F 35.8 °F 99% 30.12 in 6.0 mi SSE 8.1 mph - N/A   Clear
4:55 AM 36.3 °F 31.6 °F 36.1 °F 99% 30.13 in 5.0 mi SSE 5.8 mph - N/A   Clear
5:55 AM 35.8 °F 30.1 °F 35.6 °F 99% 30.14 in 5.0 mi SE 6.9 mph - N/A   Clear
6:38 AM 33.8 °F 27.0 °F 33.8 °F 100% 30.15 in 2.5 mi SE 8.1 mph - N/A   Clear
6:47 AM 35.6 °F 29.2 °F 35.6 °F 100% 30.15 in 1.2 mi SE 8.1 mph - N/A   Clear
6:48 AM 35.6 °F 29.9 °F 35.6 °F 100% 30.15 in 1.0 mi SE 6.9 mph - N/A   Mist
6:49 AM 35.6 °F 29.9 °F 35.6 °F 100% 30.15 in 0.8 mi SE 6.9 mph - N/A   Mist
6:50 AM 35.6 °F 29.2 °F 35.6 °F 100% 30.15 in 0.5 mi SE 8.1 mph - N/A Fog Fog
6:53 AM 35.6 °F 29.2 °F 35.6 °F 100% 30.15 in 0.2 mi SE 8.1 mph - N/A Fog Fog
6:55 AM 35.6 °F 29.2 °F 35.6 °F 100% 30.15 in 0.2 mi SE 8.1 mph - N/A Fog Fog
6:57 AM 35.6 °F 29.2 °F 35.6 °F 100% 30.15 in 0.2 mi SSE 8.1 mph - N/A Fog Fog
7:00 AM 35.6 °F 29.2 °F 35.6 °F 100% 30.15 in 0.2 mi SSE 8.1 mph - N/A Fog Fog
7:37 AM 35.6 °F 29.2 °F 35.6 °F 100% 30.16 in 0.2 mi SE 8.1 mph - N/A Fog Fog
7:38 AM 35.6 °F 29.2 °F 35.6 °F 100% 30.16 in 0.2 mi SE 8.1 mph - N/A Fog Fog
7:55 AM 36.7 °F 30.5 °F 36.7 °F 100% 30.16 in 0.2 mi SE 8.1 mph - N/A Fog Fog
8:07 AM 37.4 °F 32.1 °F 37.4 °F 100% 30.16 in 0.2 mi SE 6.9 mph - N/A Fog Fog
8:09 AM 37.4 °F 31.4 °F 37.4 °F 100% 30.16 in 0.2 mi SE 8.1 mph - N/A Fog Fog
8:15 AM 37.4 °F 30.8 °F 37.4 °F 100% 30.16 in 0.2 mi SE 9.2 mph - N/A Fog Fog
8:20 AM 37.4 °F 31.4 °F 37.4 °F 100% 30.16 in 0.5 mi SE 8.1 mph - N/A Fog Fog
8:23 AM 37.4 °F 31.4 °F 37.4 °F 100% 30.17 in 0.5 mi SE 8.1 mph - N/A Fog Fog
8:26 AM 37.4 °F 31.4 °F 37.4 °F 100% 30.17 in 0.8 mi SSE 8.1 mph - N/A   Mist
8:28 AM 37.4 °F 32.1 °F 37.4 °F 100% 30.17 in 1.0 mi SSE 6.9 mph - N/A   Mist
8:29 AM 37.4 °F 32.1 °F 37.4 °F 100% 30.14 in 0.5 mi SSE 6.9 mph - N/A   Mist
8:31 AM 37.4 °F 31.4 °F 37.4 °F 100% 30.14 in 0.5 mi SE 8.1 mph - N/A   Mist
8:42 AM 39.2 °F 33.0 °F 39.2 °F 100% 30.14 in 0.8 mi SE 9.2 mph - N/A   Overcast
8:51 AM 39.2 °F 33.6 °F 39.2 °F 100% 30.14 in 1.0 mi SE 8.1 mph - N/A   Mostly Cloudy
8:54 AM 39.2 °F 33.6 °F 39.2 °F 100% 30.14 in 1.5 mi SE 8.1 mph - N/A   Mostly Cloudy
8:57 AM 39.2 °F 33.0 °F 39.2 °F 100% 30.16 in 3.0 mi SE 9.2 mph - N/A   Mostly Cloudy
9:01 AM 39.2 °F 33.0 °F 39.2 °F 100% 30.14 in 4.0 mi SE 9.2 mph - N/A   Mostly Cloudy
9:04 AM 39.2 °F 33.6 °F 39.2 °F 100% 30.14 in 5.0 mi SE 8.1 mph - N/A   Mostly Cloudy
9:10 AM 39.2 °F 33.6 °F 39.2 °F 100% 30.14 in 6.0 mi SE 8.1 mph - N/A   Mostly Cloudy
9:18 AM 41.0 °F 37.1 °F 41.0 °F 100% 30.17 in 8.0 mi SE 5.8 mph - N/A   Mostly Cloudy
9:22 AM 41.0 °F 37.1 °F 41.0 °F 100% 30.14 in 7.0 mi ESE 5.8 mph - N/A   Mostly Cloudy
9:25 AM 41.0 °F 37.1 °F 41.0 °F 100% 30.17 in 9.0 mi ESE 5.8 mph - N/A   Mostly Cloudy
9:33 AM 41.0 °F 36.4 °F 41.0 °F 100% 30.17 in 10.0 mi SE 6.9 mph - N/A   Scattered Clouds
9:55 AM 43.7 °F 39.1 °F 41.4 °F 91% 30.16 in 10.0 mi ESE 8.1 mph - N/A   Partly Cloudy
10:55 AM 50.5 °F - 40.5 °F 68% 30.14 in 10.0 mi SE 10.4 mph - N/A   Clear
11:55 AM 55.8 °F - 39.7 °F 55% 30.10 in 10.0 mi SSE 10.4 mph - N/A   Clear
12:55 PM 59.2 °F - 41.4 °F 52% 30.07 in 10.0 mi SE 8.1 mph - N/A   Clear
1:55 PM 59.7 °F - 41.5 °F 51% 30.04 in 10.0 mi ESE 12.7 mph - N/A   Clear
2:55 PM 59.2 °F - 43.2 °F 55% 30.03 in 10.0 mi SE 13.8 mph - N/A   Clear
3:55 PM 57.0 °F - 44.2 °F 62% 30.04 in 10.0 mi SE 9.2 mph - N/A   Clear
4:55 PM 53.4 °F - 44.8 °F 73% 30.03 in 10.0 mi SE 10.4 mph - N/A   Clear
5:55 PM 50.7 °F - 45.5 °F 82% 30.02 in 10.0 mi SSE 10.4 mph - N/A   Clear
6:55 PM 50.4 °F - 46.4 °F 86% 30.02 in 10.0 mi SSE 11.5 mph - N/A   Clear
7:55 PM 50.0 °F - 46.4 °F 87% 30.02 in 10.0 mi SSE 11.5 mph - N/A   Clear
8:55 PM 49.6 °F - 46.9 °F 90% 30.02 in 10.0 mi SSE 10.4 mph 18.4 mph N/A   Clear
9:55 PM 48.6 °F - 47.1 °F 95% 30.03 in 10.0 mi SSE 9.2 mph - N/A   Partly Cloudy
10:25 PM 48.2 °F - 48.2 °F 100% 30.03 in 10.0 mi South 8.1 mph - N/A   Mostly Cloudy
10:55 PM 50.7 °F - 48.4 °F 92% 30.04 in 10.0 mi SSW 10.4 mph - N/A   Overcast
10:56 PM 50.0 °F - 48.2 °F 94% 30.04 in 10.0 mi South 9.2 mph - N/A   Overcast
11:55 PM 52.5 °F - 49.5 °F 89% 30.04 in 10.0 mi SSW 8.1 mph - N/A   Overcast